Miscellaneous Local Product
Issued by NWS Hastings, NE

Home | Current Version | Previous Version | Text Only | Print | Product List | Glossary Off
Versions: 1 2 3 4 5 6 7 8 9 10 11 12 13 14 15 16 17 18 19 20 21 22 23 24 25 26 27 28 29 30 31 32 33 34 35 36 37 38 39 40 41 42 43 44 45 46 47 48 49 50

849
AXUS43 KGID 141302
MISGRI

GID CWA HOURLY WEATHER ROUNDUP
NATIONAL WEATHER SERVICE HASTINGS NE
700 AM CST SUN FEB 14 2016

NOTE: "FAIR" INDICATES FEW OR NO CLOUDS BELOW 12,000 FEET WITH NO
SIGNIFICANT WEATHER AND/OR OBSTRUCTIONS TO VISIBILITY.

...SOUTH CENTRAL NEBRASKA...

CITY           SKY/WX    TMP DP  RH WIND       PRES   REMARKS
GRAND ISLAND   CLEAR     28  23  81 W12       29.86S WCI  18
HASTINGS       CLEAR     21  16  81 SW8       29.88S WCI  11
KEARNEY        CLEAR     32  25  74 W13       29.88S WCI  22
ORD            MOCLDY    38  29  70 W16       29.84R WCI  29
YORK           PTCLDY    19  16  86 SW12      29.86F WCI   7
AURORA         PTCLDY    21  17  84 SW13      29.86S WCI   8
LEXINGTON      CLEAR     32  26  78 W12       29.90F WCI  23
HOLDREGE       CLEAR     25  20  83 W7        29.90S WCI  17
HEBRON         CLEAR     20  12  70 SW8       29.93F WCI  10

...NEBRASKA PANHANDLE...

CITY           SKY/WX    TMP DP  RH WIND       PRES   REMARKS
CHADRON        CLOUDY    27  22  81 VRB3      29.90F
ALLIANCE       CLOUDY    31  23  72 NW12      29.88F WCI  22
SCOTTSBLUFF    CLOUDY    28  23  81 W5        29.90F WCI  23
SIDNEY         CLOUDY    27  22  81 NW10      29.92F WCI  17

...WESTERN AND NORTH CENTRAL NEBRASKA...

CITY           SKY/WX    TMP DP  RH WIND       PRES   REMARKS
VALENTINE      CLEAR     31  27  85 NW9       29.83F WCI  23
AINSWORTH      CLEAR     33  29  85 NW9       29.83F WCI  25
ONEILL         CLOUDY    38  34  83 NW17      29.80S WCI  29
BROKEN BOW     CLEAR     35  27  72 W12       29.86S WCI  27
IMPERIAL       CLEAR     31  23  72 NW9       29.92F WCI  23
NORTH PLATTE   CLEAR     27  22  81 W9        29.90F WCI  18
MCCOOK         CLEAR     33  25  72 W12       29.93F WCI  24

...EASTERN NEBRASKA...

CITY           SKY/WX    TMP DP  RH WIND       PRES   REMARKS
NORFOLK        CLOUDY    23  20  88 S5        29.81S WCI  17
SO SIOUX CITY  CLOUDY    19  12  74 SE14      29.90S WCI   6
TEKAMAH        CLOUDY    19  13  77 SE13      29.90F WCI   6
COLUMBUS       CLOUDY    25  12  58 SW10      29.84S WCI  15
ALBION         CLOUDY    39  33  77 NW16      29.80S WCI  30
OMAHA EPPLEY   CLOUDY    22   9  57 S14       29.93F WCI   9
OFFUTT AFB     CLOUDY    23   9  54 S13       29.92F WCI  11
MILLARD        CLOUDY    23   9  56 S10       29.92F WCI  12
LINCOLN        CLOUDY    22  11  62 S10       29.91F WCI  11
NEBRASKA CITY  CLOUDY    23   7  50 S15       29.92F WCI  10
BEATRICE       CLOUDY    21   8  59 S13       29.93F WCI   8
FALLS CITY     CLOUDY    24   7  48 S13       29.96F WCI  12

...NORTHERN KANSAS...

CITY           SKY/WX    TMP DP  RH WIND       PRES   REMARKS
GOODLAND       CLOUDY    26  21  81 W9        29.98S WCI  17
HILL CITY      CLEAR     33  26  75 W9        29.97S WCI  25
NORTON         SUNNY     34  23  64 W12       29.93  WCI  25
PHILLIPSBURG   CLEAR     23  19  86 CALM      29.95F
SMITH CENTER   CLEAR     16  12  86 CALM      29.96S
BELOIT         CLEAR     18  10  73 CALM      29.97S
HAYS           CLEAR     23  12  63 W8        29.97S WCI  14
RUSSELL        CLOUDY    20  15  81 SW8       29.96F WCI  10
CONCORDIA      CLEAR     20   9  62 SW10      29.95F WCI   9
SALINA         CLOUDY    19  11  70 W6        30.00S WCI  11
TOPEKA         CLEAR     21   8  57 CALM      30.01F



USA.gov is the U.S. government's official web portal to all federal, state and local government web resources and services.